This is the latest recevied weather packets stored in our database for station/object DB0RV-13. If no packets are shown the sender has not sent any weather packets the latest 10 day(s).
| Time | Temp. | Humidity | Pressure | Rain* | Wind** | Luminosity | Snow |
|---|---|---|---|---|---|---|---|
| 1777945802 | 8.89° C | 87% | 1010 hPa | - | - | - | - |
| 1777945502 | 8.33° C | 85% | 1010.2 hPa | - | - | - | - |
| 1777945201 | 8.89° C | 86% | 1010.1 hPa | - | - | - | - |
| 1777944902 | 8.89° C | 85% | 1010.2 hPa | - | - | - | - |
| 1777944602 | 8.89° C | 85% | 1010.4 hPa | - | - | - | - |
| 1777944301 | 8.89° C | 83% | 1010.5 hPa | - | - | - | - |
| 1777944002 | 8.89° C | 83% | 1010.4 hPa | - | - | - | - |
| 1777943702 | 8.89° C | 84% | 1010.5 hPa | - | - | - | - |
| 1777943401 | 8.89° C | 83% | 1010.6 hPa | - | - | - | - |
| 1777943102 | 8.89° C | 84% | 1010.6 hPa | - | - | - | - |
| 1777942803 | 9.44° C | 83% | 1010.6 hPa | - | - | - | - |
| 1777942501 | 10° C | 85% | 1010.7 hPa | - | - | - | - |
| 1777942202 | 10.56° C | 85% | 1010.6 hPa | - | - | - | - |
| 1777941902 | 10.56° C | 87% | 1010.8 hPa | - | - | - | - |
| 1777941601 | 10° C | 85% | 1011 hPa | - | - | - | - |
| 1777941302 | 10° C | 85% | 1010.9 hPa | - | - | - | - |
| 1777941002 | 9.44° C | 84% | 1011.1 hPa | - | - | - | - |
| 1777940701 | 10° C | 83% | 1010.9 hPa | - | - | - | - |
| 1777940402 | 10° C | 86% | 1011 hPa | - | - | - | - |
| 1777940102 | 10° C | 84% | 1011 hPa | - | - | - | - |
| 1777939801 | 10° C | 81% | 1011 hPa | - | - | - | - |
| 1777939502 | 10.56° C | 81% | 1011 hPa | - | - | - | - |
| 1777939202 | 10° C | 82% | 1010.9 hPa | - | - | - | - |
| 1777938901 | 10.56° C | 84% | 1011 hPa | - | - | - | - |
| 1777938602 | 10.56° C | 84% | 1011 hPa | - | - | - | - |
* Rain since midnight (hover to see other rain measurements)
** Current wind speed in m/s (hover to see current wind gust speed)